ARG2562 SAWH-SPJC

Flight info

Callsign ARG2562
Flight time N/A
Altitude 36000
Route UGIRA2B UGIRA UW63 MUBES UW42 GAL DCT BOKUK UT658 ESQ UW44 BAR DCT SOSTA DCT TIRLO DCT ANPUK DCT LIVOR/N0485F380 UL780 SORTA DCT ILMAR
Aircraft B77W/H-SDE1E2E3FGHIJ2J3J4J5M1RWXY/LB1D1

Departure

Time 2026-05-06 22:23
Airport Ushuaia - Malvinas Argentinas International Airport (SAWH)

Arrival

Time N/A
Airport Jorge Chávez International Airport (SPJC)
Time Latitude Longitude Altitude Speed Heading
2026-05-06 21:46 -54.84030 -68.31176 87 ft 0 kts 350°
2026-05-06 22:19 -54.84049 -68.31170 87 ft 4 kts 348°
2026-05-06 22:19 -54.84075 -68.31159 89 ft 4 kts 345°
2026-05-06 22:19 -54.84101 -68.31147 87 ft 1 kts 345°
2026-05-06 22:21 -54.84096 -68.31152 87 ft 6 kts 332°
2026-05-06 22:21 -54.84081 -68.31236 91 ft 8 kts 255°
2026-05-06 22:21 -54.84117 -68.31307 87 ft 8 kts 209°
2026-05-06 22:21 -54.84174 -68.31326 90 ft 9 kts 180°
2026-05-06 22:22 -54.84246 -68.31322 87 ft 12 kts 178°
2026-05-06 22:22 -54.84334 -68.31310 92 ft 13 kts 174°
2026-05-06 22:22 -54.84388 -68.31141 93 ft 36 kts 92°
2026-05-06 22:22 -54.84347 -68.30056 87 ft 144 kts 86°
2026-05-06 22:23 -54.84265 -68.27734 227 ft 230 kts 86°
2026-05-06 22:23 -54.84167 -68.25093 1472 ft 211 kts 87°
2026-05-06 22:23 -54.84174 -68.22584 2384 ft 206 kts 94°
2026-05-06 22:23 -54.84519 -68.20002 2260 ft 240 kts 116°
2026-05-06 22:24 -54.85268 -68.17298 2166 ft 249 kts 115°
2026-05-06 22:24 -54.85927 -68.14549 2676 ft 252 kts 112°
2026-05-06 22:24 -54.86550 -68.11664 3511 ft 257 kts 111°
2026-05-06 22:24 -54.87141 -68.08716 4339 ft 261 kts 110°
2026-05-06 22:25 -54.87718 -68.05690 5139 ft 266 kts 109°
2026-05-06 22:25 -54.88285 -68.02598 5914 ft 271 kts 109°
2026-05-06 22:25 -54.88843 -67.99482 6673 ft 275 kts 108°
2026-05-06 22:25 -54.89408 -67.96276 7417 ft 281 kts 108°
2026-05-06 22:26 -54.89980 -67.93000 8173 ft 285 kts 108°
2026-05-06 22:26 -54.90559 -67.89683 8924 ft 288 kts 109°
2026-05-06 22:26 -54.91498 -67.86643 9496 ft 289 kts 137°
2026-05-06 22:26 -54.93176 -67.84777 10168 ft 287 kts 166°
2026-05-06 22:27 -54.95133 -67.84426 10899 ft 284 kts 191°
2026-05-06 22:27 -54.96980 -67.85532 11610 ft 282 kts 216°
2026-05-06 22:27 -54.98364 -67.87878 12346 ft 279 kts 240°
2026-05-06 22:27 -54.99034 -67.91018 13112 ft 279 kts 264°
2026-05-06 22:28 -54.98890 -67.94446 13516 ft 297 kts 287°
2026-05-06 22:28 -54.97939 -67.97796 13718 ft 322 kts 303°
2026-05-06 22:28 -54.96535 -68.01025 13921 ft 348 kts 308°
2026-05-06 22:28 -54.94945 -68.04351 14341 ft 364 kts 309°
2026-05-06 22:29 -54.93305 -68.07770 15084 ft 371 kts 309°
2026-05-06 22:29 -54.91666 -68.11251 15940 ft 374 kts 308°
2026-05-06 22:29 -54.90031 -68.14787 16852 ft 374 kts 308°
2026-05-06 22:29 -54.88428 -68.18287 17717 ft 376 kts 308°
2026-05-06 22:30 -54.86796 -68.21860 18514 ft 379 kts 308°
2026-05-06 22:30 -54.85037 -68.25258 19108 ft 381 kts 320°
2026-05-06 22:30 -54.82730 -68.27611 19693 ft 390 kts 335°
2026-05-06 22:30 -54.80104 -68.28923 20373 ft 397 kts 349°
2026-05-06 22:31 -54.77319 -68.29306 21050 ft 402 kts 354°
2026-05-06 22:31 -54.74533 -68.29522 21709 ft 406 kts 354°
2026-05-06 22:31 -54.71709 -68.29723 22359 ft 409 kts 354°
2026-05-06 22:31 -54.68844 -68.29950 22992 ft 412 kts 354°
2026-05-06 22:32 -54.65973 -68.30206 23560 ft 416 kts 354°
2026-05-06 22:32 -54.64039 -68.30390 23974 ft 417 kts 353°
2026-05-06 22:32 -54.60168 -68.30774 24746 ft 421 kts 353°
2026-05-06 22:32 -54.57229 -68.31072 25251 ft 425 kts 353°
2026-05-06 22:33 -54.54264 -68.31373 25770 ft 428 kts 353°
2026-05-06 22:33 -54.52261 -68.31575 26127 ft 429 kts 353°
2026-05-06 22:33 -54.49275 -68.31875 26650 ft 431 kts 353°
2026-05-06 22:33 -54.46288 -68.32169 27101 ft 435 kts 354°
2026-05-06 22:34 -54.43256 -68.32462 27543 ft 438 kts 354°
2026-05-06 22:34 -54.40191 -68.32756 27980 ft 441 kts 354°
2026-05-06 22:34 -54.37131 -68.33048 28412 ft 443 kts 354°
2026-05-06 22:34 -54.34006 -68.33349 28816 ft 445 kts 354°
2026-05-06 22:35 -54.30910 -68.33644 29172 ft 448 kts 354°
2026-05-06 22:35 -54.27827 -68.33938 29547 ft 449 kts 354°
2026-05-06 22:35 -54.24721 -68.34235 29889 ft 451 kts 354°
2026-05-06 22:35 -54.21534 -68.34540 30215 ft 453 kts 354°
2026-05-06 22:36 -54.18431 -68.34835 30587 ft 453 kts 354°
2026-05-06 22:36 -54.15251 -68.35137 30953 ft 453 kts 354°
2026-05-06 22:36 -54.12105 -68.35436 31286 ft 454 kts 354°
2026-05-06 22:36 -54.08966 -68.35735 31613 ft 454 kts 354°
2026-05-06 22:37 -54.05810 -68.36033 31947 ft 455 kts 354°
2026-05-06 22:37 -54.02648 -68.36332 32265 ft 455 kts 354°
2026-05-06 22:37 -53.99479 -68.36632 32569 ft 456 kts 354°
2026-05-06 22:37 -53.96307 -68.36932 32892 ft 456 kts 353°
2026-05-06 22:38 -53.93118 -68.37233 33227 ft 455 kts 354°
2026-05-06 22:38 -53.90173 -68.37510 33505 ft 455 kts 354°
2026-05-06 22:38 -53.87038 -68.37806 33747 ft 456 kts 354°
2026-05-06 22:38 -53.83830 -68.38107 33955 ft 458 kts 354°
2026-05-06 22:39 -53.77498 -68.38700 34027 ft 458 kts 354°
2026-05-06 22:39 -53.71146 -68.39293 34049 ft 457 kts 354°
2026-05-06 22:40 -53.64749 -68.39886 34050 ft 457 kts 354°
2026-05-06 22:40 -53.58426 -68.40472 34046 ft 456 kts 354°
2026-05-06 22:41 -53.48901 -68.41354 34049 ft 456 kts 354°
2026-05-06 22:42 -53.42592 -68.41936 34045 ft 456 kts 354°
2026-05-06 22:42 -53.36264 -68.42531 34046 ft 457 kts 353°
2026-05-06 22:43 -53.29886 -68.43155 34050 ft 456 kts 353°
2026-05-06 22:43 -53.23582 -68.43768 34043 ft 456 kts 353°
2026-05-06 22:44 -53.17234 -68.44380 34048 ft 457 kts 353°
2026-05-06 22:44 -53.10881 -68.44988 34045 ft 456 kts 353°
2026-05-06 22:45 -53.04537 -68.45596 34047 ft 456 kts 353°
2026-05-06 22:45 -52.98215 -68.46199 34040 ft 456 kts 353°
2026-05-06 22:46 -52.91888 -68.46802 34039 ft 456 kts 353°
2026-05-06 22:46 -52.85554 -68.47406 34032 ft 455 kts 352°
2026-05-06 22:47 -52.79377 -68.49228 34049 ft 449 kts 341°
2026-05-06 22:47 -52.73525 -68.52752 34045 ft 447 kts 334°
2026-05-06 22:48 -52.67852 -68.56961 34022 ft 447 kts 333°
2026-05-06 22:48 -52.62195 -68.61151 34031 ft 447 kts 333°
2026-05-06 22:49 -52.56504 -68.65323 34033 ft 447 kts 334°
2026-05-06 22:49 -52.50828 -68.69448 34033 ft 447 kts 334°
2026-05-06 22:50 -52.45149 -68.73564 34026 ft 447 kts 334°
2026-05-06 22:50 -52.39457 -68.77679 34022 ft 447 kts 334°
2026-05-06 22:51 -52.33744 -68.81796 34029 ft 447 kts 334°
2026-05-06 22:51 -52.28052 -68.85885 34024 ft 447 kts 334°
2026-05-06 22:52 -52.22390 -68.89945 34026 ft 448 kts 334°
2026-05-06 22:52 -52.16643 -68.94053 34030 ft 449 kts 334°
2026-05-06 22:53 -52.10965 -68.98100 34033 ft 448 kts 334°
2026-05-06 22:53 -52.05254 -69.02160 34019 ft 448 kts 334°
2026-05-06 22:54 -51.99535 -69.06214 34020 ft 448 kts 334°
2026-05-06 22:54 -51.93826 -69.10247 34020 ft 445 kts 334°
2026-05-06 22:55 -51.88235 -69.14189 34015 ft 445 kts 334°
2026-05-06 22:55 -51.82513 -69.18212 34020 ft 446 kts 334°
2026-05-06 22:56 -51.76835 -69.22193 34023 ft 446 kts 334°
2026-05-06 22:56 -51.71125 -69.26187 34018 ft 446 kts 334°
2026-05-06 22:57 -51.65434 -69.30154 34016 ft 446 kts 334°
2026-05-06 22:57 -51.59562 -69.33342 34024 ft 450 kts 343°
2026-05-06 22:58 -51.53364 -69.35045 34025 ft 452 kts 348°
2026-05-06 22:58 -51.47153 -69.36461 34019 ft 451 kts 348°
2026-05-06 22:59 -51.40923 -69.37906 34017 ft 451 kts 348°
2026-05-06 22:59 -51.34724 -69.39360 34019 ft 451 kts 348°
2026-05-06 23:00 -51.28547 -69.40810 34023 ft 450 kts 348°
2026-05-06 23:00 -51.22348 -69.42264 34012 ft 449 kts 348°
2026-05-06 23:01 -51.16156 -69.43712 34022 ft 449 kts 348°
2026-05-06 23:01 -51.09966 -69.45156 34014 ft 449 kts 348°
2026-05-06 23:02 -51.03782 -69.46595 34017 ft 448 kts 348°
2026-05-06 23:02 -50.97664 -69.48014 34018 ft 448 kts 348°
2026-05-06 23:03 -50.91466 -69.49447 34016 ft 447 kts 348°
2026-05-06 23:03 -50.85318 -69.50867 34022 ft 447 kts 348°
2026-05-06 23:04 -50.79179 -69.52279 34024 ft 447 kts 348°
2026-05-06 23:04 -50.72991 -69.53698 34017 ft 446 kts 348°
2026-05-06 23:05 -50.66895 -69.55092 34015 ft 446 kts 347°
2026-05-06 23:05 -50.60762 -69.56492 34008 ft 446 kts 348°
2026-05-06 23:06 -50.54594 -69.57896 34008 ft 446 kts 348°
2026-05-06 23:06 -50.48496 -69.59281 34009 ft 445 kts 347°
2026-05-06 23:07 -50.42325 -69.60678 34006 ft 445 kts 348°
2026-05-06 23:07 -50.36233 -69.62053 34010 ft 445 kts 348°
2026-05-06 23:08 -50.30095 -69.63435 34011 ft 445 kts 348°
2026-05-06 23:08 -50.23979 -69.64811 34010 ft 445 kts 348°
2026-05-06 23:09 -50.17821 -69.66191 34001 ft 445 kts 348°
2026-05-06 23:09 -50.11703 -69.67557 33998 ft 445 kts 348°
2026-05-06 23:10 -50.05567 -69.68925 34001 ft 445 kts 348°
2026-05-06 23:10 -49.99482 -69.70279 34002 ft 445 kts 348°
2026-05-06 23:11 -49.93351 -69.71637 34022 ft 444 kts 348°
2026-05-06 23:11 -49.87201 -69.72999 34021 ft 444 kts 348°
2026-05-06 23:12 -49.81096 -69.74347 34030 ft 444 kts 348°
2026-05-06 23:12 -49.74996 -69.75689 34028 ft 444 kts 348°
2026-05-06 23:13 -49.68863 -69.77035 34026 ft 444 kts 348°
2026-05-06 23:13 -49.62739 -69.78377 34028 ft 444 kts 347°
2026-05-06 23:14 -49.56656 -69.79706 34026 ft 443 kts 348°
2026-05-06 23:14 -49.50552 -69.81031 34027 ft 443 kts 347°
2026-05-06 23:15 -49.44456 -69.82360 34028 ft 442 kts 347°
2026-05-06 23:15 -49.38361 -69.83683 34021 ft 441 kts 348°
2026-05-06 23:16 -49.32293 -69.84994 34026 ft 441 kts 348°
2026-05-06 23:16 -49.26219 -69.86302 34014 ft 441 kts 347°
2026-05-06 23:17 -49.20127 -69.87614 34023 ft 440 kts 347°
2026-05-06 23:17 -49.14087 -69.88911 34014 ft 440 kts 347°
2026-05-06 23:18 -49.08050 -69.90203 34011 ft 439 kts 347°
2026-05-06 23:18 -49.01971 -69.91500 34019 ft 439 kts 347°
2026-05-06 23:19 -48.95955 -69.92782 34022 ft 439 kts 347°
2026-05-06 23:19 -48.90928 -69.93851 34017 ft 438 kts 347°
2026-05-06 23:20 -48.83909 -69.95341 34013 ft 436 kts 347°
2026-05-06 23:20 -48.78890 -69.96402 34007 ft 437 kts 347°
2026-05-06 23:21 -48.72874 -69.97671 34009 ft 436 kts 348°
2026-05-06 23:21 -48.66873 -69.98935 34006 ft 435 kts 348°
2026-05-06 23:22 -48.60866 -70.00197 34010 ft 435 kts 348°
2026-05-06 23:22 -48.54858 -70.01459 34011 ft 437 kts 348°
2026-05-06 23:23 -48.48842 -70.02715 33998 ft 437 kts 348°
2026-05-06 23:23 -48.42812 -70.03973 33998 ft 436 kts 348°
2026-05-06 23:24 -48.36799 -70.05244 33998 ft 435 kts 348°
2026-05-06 23:24 -48.30803 -70.06489 33997 ft 436 kts 348°
2026-05-06 23:25 -48.24788 -70.07768 33997 ft 434 kts 348°
2026-05-06 23:25 -48.18809 -70.09036 34000 ft 434 kts 348°
2026-05-06 23:26 -48.12864 -70.10281 33988 ft 434 kts 348°
2026-05-06 23:26 -48.06886 -70.11529 33991 ft 433 kts 348°
2026-05-06 23:27 -48.00924 -70.12774 33993 ft 433 kts 348°
2026-05-06 23:27 -47.94965 -70.14011 33991 ft 433 kts 348°
2026-05-06 23:28 -47.88985 -70.15250 33988 ft 433 kts 348°
2026-05-06 23:28 -47.82972 -70.16496 33982 ft 433 kts 348°
2026-05-06 23:29 -47.77044 -70.17721 33981 ft 434 kts 348°
2026-05-06 23:29 -47.71029 -70.18959 33979 ft 434 kts 348°
2026-05-06 23:30 -47.65044 -70.20190 33981 ft 434 kts 348°
2026-05-06 23:30 -47.59076 -70.21415 33982 ft 435 kts 348°
2026-05-06 23:31 -47.53049 -70.22649 33972 ft 436 kts 348°
2026-05-06 23:31 -47.47062 -70.23871 33966 ft 436 kts 348°
2026-05-06 23:32 -47.41066 -70.25092 33976 ft 436 kts 348°
2026-05-06 23:32 -47.35054 -70.26315 33973 ft 437 kts 348°
2026-05-06 23:33 -47.29014 -70.27539 33979 ft 437 kts 348°
2026-05-06 23:33 -47.22990 -70.28757 33973 ft 438 kts 348°
2026-05-06 23:34 -47.16933 -70.29979 33968 ft 438 kts 348°
2026-05-06 23:34 -47.10871 -70.31196 33965 ft 438 kts 348°
2026-05-06 23:35 -47.04869 -70.32398 33959 ft 439 kts 348°
2026-05-06 23:35 -47.03866 -70.32598 33968 ft 439 kts 348°
2026-05-06 23:36 -46.92457 -70.34875 33967 ft 438 kts 348°
2026-05-06 23:36 -46.86451 -70.36073 33971 ft 439 kts 348°
2026-05-06 23:37 -46.80388 -70.37277 33957 ft 439 kts 348°
2026-05-06 23:37 -46.74338 -70.38476 33958 ft 439 kts 348°
2026-05-06 23:38 -46.68282 -70.39672 33954 ft 439 kts 348°
2026-05-06 23:38 -46.62244 -70.40861 33959 ft 439 kts 348°
2026-05-06 23:39 -46.56189 -70.42055 33960 ft 439 kts 348°
2026-05-06 23:39 -46.50147 -70.43241 33946 ft 439 kts 348°
2026-05-06 23:40 -46.44072 -70.44430 33958 ft 440 kts 348°
2026-05-06 23:40 -46.38038 -70.45612 33950 ft 439 kts 348°
2026-05-06 23:41 -46.31993 -70.46790 33952 ft 439 kts 348°
2026-05-06 23:41 -46.25896 -70.47975 33953 ft 439 kts 348°
2026-05-06 23:42 -46.19857 -70.49148 33957 ft 439 kts 348°
2026-05-06 23:42 -46.13808 -70.50320 33954 ft 439 kts 348°
2026-05-06 23:43 -46.07769 -70.51488 33938 ft 439 kts 348°
2026-05-06 23:43 -46.01737 -70.52651 33941 ft 439 kts 348°
2026-05-06 23:44 -45.95701 -70.53813 33938 ft 439 kts 348°
2026-05-06 23:44 -45.89640 -70.54977 33951 ft 439 kts 348°
2026-05-06 23:45 -45.83568 -70.56141 33947 ft 439 kts 348°
2026-05-06 23:45 -45.77500 -70.57305 33941 ft 439 kts 348°
2026-05-06 23:46 -45.71477 -70.58455 33936 ft 440 kts 348°
2026-05-06 23:46 -45.65414 -70.59612 33937 ft 440 kts 348°
2026-05-06 23:47 -45.59324 -70.60772 33936 ft 440 kts 348°
2026-05-06 23:47 -45.53258 -70.61925 33934 ft 441 kts 348°
2026-05-06 23:48 -45.47150 -70.63083 33935 ft 441 kts 348°
2026-05-06 23:48 -45.41085 -70.64228 33935 ft 441 kts 348°
2026-05-06 23:49 -45.34972 -70.65382 33936 ft 442 kts 348°
2026-05-06 23:49 -45.28920 -70.66522 33933 ft 442 kts 349°
2026-05-06 23:50 -45.22797 -70.67673 33937 ft 443 kts 349°
2026-05-06 23:50 -45.13632 -70.69389 33934 ft 443 kts 349°
2026-05-06 23:51 -45.07551 -70.70527 33939 ft 443 kts 349°
2026-05-06 23:51 -45.01440 -70.71666 33936 ft 443 kts 349°
2026-05-06 23:52 -44.95294 -70.72809 33933 ft 443 kts 349°
2026-05-06 23:52 -44.89203 -70.73939 33930 ft 444 kts 349°
2026-05-06 23:53 -44.83101 -70.75071 33925 ft 444 kts 349°
2026-05-06 23:53 -44.76985 -70.76202 33926 ft 444 kts 349°
2026-05-06 23:54 -44.70843 -70.77339 33927 ft 444 kts 349°
2026-05-06 23:54 -44.64737 -70.78468 33923 ft 444 kts 349°
2026-05-06 23:55 -44.59585 -70.79417 33927 ft 444 kts 349°
2026-05-06 23:55 -44.53477 -70.80542 33928 ft 444 kts 349°
2026-05-06 23:56 -44.47379 -70.81661 33923 ft 444 kts 349°
2026-05-06 23:56 -44.41241 -70.82785 33927 ft 444 kts 349°
2026-05-06 23:57 -44.35138 -70.83902 33932 ft 445 kts 349°
2026-05-06 23:57 -44.29001 -70.85023 33915 ft 445 kts 349°
2026-05-06 23:58 -44.22821 -70.86148 33918 ft 445 kts 349°
2026-05-06 23:58 -44.16735 -70.87253 33917 ft 445 kts 349°
2026-05-06 23:59 -44.10586 -70.88368 33915 ft 445 kts 349°
2026-05-06 23:59 -44.04414 -70.89484 33920 ft 445 kts 349°
2026-05-07 00:00 -43.98299 -70.90589 33915 ft 445 kts 349°
2026-05-07 00:00 -43.92168 -70.91694 33914 ft 446 kts 349°
2026-05-07 00:01 -43.86012 -70.92800 33919 ft 447 kts 349°
2026-05-07 00:01 -43.79798 -70.93917 33909 ft 454 kts 350°
2026-05-07 00:02 -43.73465 -70.95052 33924 ft 462 kts 350°
2026-05-07 00:02 -43.67056 -70.96199 33919 ft 464 kts 350°
2026-05-07 00:03 -43.60680 -70.97332 33913 ft 462 kts 350°
2026-05-07 00:03 -43.54297 -70.98468 33912 ft 462 kts 350°
2026-05-07 00:04 -43.47913 -70.99600 33920 ft 463 kts 350°
2026-05-07 00:04 -43.41545 -71.00728 33918 ft 463 kts 350°
2026-05-07 00:05 -43.35169 -71.01856 33915 ft 463 kts 350°
2026-05-07 00:05 -43.28743 -71.02989 33917 ft 464 kts 350°
2026-05-07 00:06 -43.22326 -71.04119 33918 ft 464 kts 350°
2026-05-07 00:06 -43.15936 -71.05243 33913 ft 464 kts 350°
2026-05-07 00:07 -43.09512 -71.06366 33918 ft 464 kts 350°
2026-05-07 00:07 -43.03123 -71.07485 33915 ft 465 kts 350°
2026-05-07 00:08 -42.96711 -71.08605 33917 ft 465 kts 350°
2026-05-07 00:08 -42.90300 -71.09722 33912 ft 465 kts 350°
2026-05-07 00:09 -42.83806 -71.10337 33920 ft 467 kts 355°
2026-05-07 00:09 -42.77298 -71.10644 33916 ft 467 kts 355°
2026-05-07 00:10 -42.70796 -71.10959 33914 ft 467 kts 355°
2026-05-07 00:10 -42.64315 -71.11295 33917 ft 468 kts 355°
2026-05-07 00:11 -42.57811 -71.11640 33948 ft 468 kts 355°
2026-05-07 00:11 -42.51281 -71.11985 33942 ft 468 kts 355°
2026-05-07 00:12 -42.44781 -71.12328 33947 ft 469 kts 355°
2026-05-07 00:12 -42.38257 -71.12672 33945 ft 469 kts 355°
2026-05-07 00:13 -42.31729 -71.13015 33941 ft 469 kts 355°
2026-05-07 00:13 -42.25207 -71.13356 33939 ft 469 kts 355°
2026-05-07 00:14 -42.18679 -71.13696 33948 ft 469 kts 355°
2026-05-07 00:14 -42.12192 -71.14036 33955 ft 470 kts 355°
2026-05-07 00:15 -42.05646 -71.14377 33955 ft 470 kts 355°
2026-05-07 00:15 -41.99094 -71.14717 33942 ft 470 kts 355°
2026-05-07 00:16 -41.92551 -71.15055 33961 ft 472 kts 356°
2026-05-07 00:16 -41.85973 -71.15396 33966 ft 473 kts 355°
2026-05-07 00:17 -41.79434 -71.15733 33976 ft 473 kts 355°
2026-05-07 00:17 -41.72853 -71.16070 33967 ft 473 kts 355°
2026-05-07 00:18 -41.66274 -71.16399 33974 ft 473 kts 356°
2026-05-07 00:18 -41.59688 -71.16714 33971 ft 473 kts 356°
2026-05-07 00:19 -41.53169 -71.17025 33974 ft 473 kts 356°
2026-05-07 00:19 -41.46601 -71.17341 33983 ft 474 kts 356°
2026-05-07 00:20 -41.39983 -71.17660 33974 ft 474 kts 356°
2026-05-07 00:20 -41.33418 -71.17973 33973 ft 474 kts 356°
2026-05-07 00:21 -41.26824 -71.18288 33973 ft 474 kts 356°
2026-05-07 00:21 -41.20221 -71.18604 33972 ft 475 kts 356°
2026-05-07 00:22 -41.13622 -71.19078 33962 ft 474 kts 351°
2026-05-07 00:22 -41.07176 -71.20760 33963 ft 473 kts 346°
2026-05-07 00:23 -41.00747 -71.22670 33971 ft 474 kts 346°
2026-05-07 00:23 -40.94300 -71.24551 33969 ft 474 kts 346°
2026-05-07 00:24 -40.87843 -71.26404 33975 ft 475 kts 346°
2026-05-07 00:24 -40.81353 -71.28255 33981 ft 476 kts 346°
2026-05-07 00:25 -40.74908 -71.30088 33979 ft 476 kts 346°
2026-05-07 00:25 -40.68415 -71.31931 33990 ft 477 kts 346°
2026-05-07 00:26 -40.61910 -71.33777 33993 ft 478 kts 346°
2026-05-07 00:26 -40.55399 -71.35624 33989 ft 479 kts 346°
2026-05-07 00:27 -40.48880 -71.37465 33991 ft 480 kts 346°
2026-05-07 00:27 -40.42379 -71.39296 33990 ft 480 kts 346°
2026-05-07 00:28 -40.35823 -71.41142 33987 ft 482 kts 346°
2026-05-07 00:28 -40.29468 -71.42926 33984 ft 482 kts 346°
2026-05-07 00:29 -40.22803 -71.44795 33984 ft 483 kts 346°
2026-05-07 00:30 -40.09667 -71.48465 33979 ft 484 kts 346°
2026-05-07 00:30 -40.03065 -71.50304 33982 ft 485 kts 346°
2026-05-07 00:31 -39.97568 -71.51834 33980 ft 485 kts 346°
2026-05-07 00:31 -39.89849 -71.53974 33990 ft 485 kts 346°
2026-05-07 00:32 -39.83265 -71.55801 33991 ft 486 kts 346°
2026-05-07 00:32 -39.76636 -71.57634 33994 ft 486 kts 346°
2026-05-07 00:33 -39.70016 -71.59460 34007 ft 486 kts 346°
2026-05-07 00:33 -39.63398 -71.61283 34013 ft 485 kts 346°
2026-05-07 00:34 -39.56822 -71.63089 34028 ft 485 kts 346°
2026-05-07 00:34 -39.50220 -71.64899 34042 ft 484 kts 346°
2026-05-07 00:35 -39.43634 -71.66702 34055 ft 484 kts 346°
2026-05-07 00:35 -39.37040 -71.68504 34064 ft 484 kts 346°
2026-05-07 00:36 -39.30467 -71.70298 34076 ft 483 kts 346°
2026-05-07 00:36 -39.23880 -71.72090 34081 ft 483 kts 346°
2026-05-07 00:37 -39.17300 -71.73877 34092 ft 482 kts 346°
2026-05-07 00:37 -39.10733 -71.75658 34099 ft 482 kts 346°
2026-05-07 00:38 -39.04203 -71.77425 34102 ft 481 kts 346°
2026-05-07 00:38 -38.97651 -71.79195 34112 ft 481 kts 346°
2026-05-07 00:39 -38.91054 -71.80973 34121 ft 481 kts 345°
2026-05-07 00:39 -38.85620 -71.82436 34128 ft 480 kts 345°
2026-05-07 00:40 -38.79054 -71.84200 34134 ft 480 kts 345°
2026-05-07 00:40 -38.72510 -71.85956 34133 ft 480 kts 345°
2026-05-07 00:41 -38.66002 -71.87697 34139 ft 480 kts 345°
2026-05-07 00:41 -38.59462 -71.89443 34141 ft 480 kts 345°
2026-05-07 00:42 -38.52914 -71.91191 34144 ft 480 kts 345°
2026-05-07 00:42 -38.46376 -71.92932 34142 ft 480 kts 345°
2026-05-07 00:43 -38.39821 -71.94674 34146 ft 480 kts 345°
2026-05-07 00:43 -38.33313 -71.96399 34149 ft 480 kts 345°
2026-05-07 00:44 -38.26757 -71.98134 34150 ft 481 kts 345°
2026-05-07 00:44 -38.20187 -71.99870 34147 ft 481 kts 345°
2026-05-07 00:45 -38.13671 -72.01588 34158 ft 481 kts 345°
2026-05-07 00:45 -38.07101 -72.03318 34152 ft 481 kts 345°
2026-05-07 00:46 -38.00538 -72.05042 34156 ft 481 kts 345°
2026-05-07 00:46 -37.93975 -72.06764 34167 ft 481 kts 345°
2026-05-07 00:47 -37.87457 -72.08470 34164 ft 481 kts 345°
2026-05-07 00:47 -37.80886 -72.10188 34167 ft 482 kts 345°
2026-05-07 00:48 -37.74308 -72.11904 34175 ft 482 kts 345°
2026-05-07 00:48 -37.67738 -72.13614 34174 ft 483 kts 345°
2026-05-07 00:49 -37.61142 -72.15330 34177 ft 484 kts 345°
2026-05-07 00:49 -37.54587 -72.17032 34176 ft 484 kts 345°
2026-05-07 00:50 -37.47972 -72.18744 34187 ft 485 kts 345°
2026-05-07 00:50 -37.41344 -72.20456 34183 ft 487 kts 345°
2026-05-07 00:51 -37.34697 -72.22172 34183 ft 487 kts 345°
2026-05-07 00:51 -37.28035 -72.23888 34185 ft 488 kts 345°
2026-05-07 00:52 -37.21408 -72.25592 34184 ft 490 kts 345°
2026-05-07 00:52 -37.14711 -72.27311 34186 ft 490 kts 344°
2026-05-07 00:53 -37.08020 -72.29026 34181 ft 491 kts 344°
2026-05-07 00:53 -37.01309 -72.30742 34186 ft 492 kts 344°
2026-05-07 00:54 -36.94626 -72.32447 34184 ft 493 kts 344°
2026-05-07 00:54 -36.87896 -72.34161 34176 ft 493 kts 344°
2026-05-07 00:55 -36.81165 -72.35873 34175 ft 493 kts 344°
2026-05-07 00:55 -36.74478 -72.37571 34176 ft 493 kts 344°
2026-05-07 00:56 -36.67751 -72.39277 34174 ft 493 kts 344°
2026-05-07 00:56 -36.61019 -72.40981 34174 ft 493 kts 344°
2026-05-07 00:57 -36.54291 -72.42678 34175 ft 493 kts 344°
2026-05-07 00:57 -36.47559 -72.44376 34176 ft 493 kts 344°
2026-05-07 00:58 -36.40870 -72.46059 34174 ft 493 kts 344°
2026-05-07 00:58 -36.34134 -72.47751 34183 ft 493 kts 344°
2026-05-07 00:59 -36.24026 -72.50284 34169 ft 493 kts 344°
2026-05-07 01:00 -36.17308 -72.51965 34181 ft 493 kts 344°
2026-05-07 01:00 -36.10626 -72.53633 34173 ft 493 kts 344°
2026-05-07 01:01 -36.03900 -72.55310 34181 ft 493 kts 344°
2026-05-07 01:01 -35.97161 -72.56988 34175 ft 493 kts 344°
2026-05-07 01:02 -35.90437 -72.58657 34176 ft 491 kts 343°
2026-05-07 01:02 -35.83745 -72.60316 34174 ft 490 kts 343°
2026-05-07 01:03 -35.77023 -72.61820 34173 ft 492 kts 346°
2026-05-07 01:03 -35.70237 -72.63036 34176 ft 493 kts 347°
2026-05-07 01:04 -35.63439 -72.64236 34174 ft 493 kts 346°
2026-05-07 01:04 -35.56699 -72.65471 34176 ft 492 kts 346°
2026-05-07 01:05 -35.49925 -72.66734 34176 ft 491 kts 346°
2026-05-07 01:05 -35.43166 -72.67997 34173 ft 491 kts 346°
2026-05-07 01:06 -35.36397 -72.69258 34176 ft 491 kts 346°
2026-05-07 01:06 -35.29644 -72.70513 34176 ft 491 kts 346°
2026-05-07 01:07 -35.22940 -72.71753 34176 ft 490 kts 346°
2026-05-07 01:07 -35.16195 -72.73002 34175 ft 490 kts 345°
2026-05-07 01:08 -35.09463 -72.74246 34175 ft 489 kts 345°
2026-05-07 01:08 -35.02744 -72.75482 34176 ft 488 kts 345°
2026-05-07 01:09 -34.96025 -72.76721 34175 ft 487 kts 345°
2026-05-07 01:09 -34.89361 -72.77946 34187 ft 486 kts 345°
2026-05-07 01:10 -34.82675 -72.79173 34196 ft 485 kts 345°
2026-05-07 01:10 -34.76002 -72.80396 34193 ft 484 kts 345°
2026-05-07 01:11 -34.69339 -72.81613 34193 ft 483 kts 345°
2026-05-07 01:11 -34.62679 -72.82829 34196 ft 483 kts 345°
2026-05-07 01:12 -34.56087 -72.84031 34191 ft 481 kts 345°
2026-05-07 01:12 -34.49467 -72.85237 34193 ft 481 kts 345°
2026-05-07 01:13 -34.42830 -72.86444 34193 ft 481 kts 345°
2026-05-07 01:13 -34.36220 -72.87642 34194 ft 480 kts 344°
2026-05-07 01:14 -34.29609 -72.88840 34193 ft 480 kts 344°
2026-05-07 01:14 -34.23035 -72.90031 34194 ft 480 kts 344°
2026-05-07 01:15 -34.16420 -72.91225 34193 ft 480 kts 344°
2026-05-07 01:15 -34.09805 -72.92416 34194 ft 480 kts 344°
2026-05-07 01:16 -34.03200 -72.93605 34192 ft 480 kts 344°
2026-05-07 01:16 -33.96634 -72.94786 34197 ft 479 kts 344°
2026-05-07 01:17 -33.90089 -72.95956 34188 ft 473 kts 343°
2026-05-07 01:17 -33.83565 -72.97128 34194 ft 474 kts 343°
2026-05-07 01:18 -33.77033 -72.98298 34196 ft 474 kts 343°
2026-05-07 01:18 -33.70494 -72.99467 34218 ft 475 kts 343°
2026-05-07 01:19 -33.64022 -73.00923 34226 ft 469 kts 338°
2026-05-07 01:19 -33.57709 -73.02758 34218 ft 469 kts 338°
2026-05-07 01:20 -33.51346 -73.04616 34199 ft 470 kts 338°
2026-05-07 01:20 -33.44973 -73.06454 34194 ft 470 kts 338°
2026-05-07 01:21 -33.38603 -73.08274 34194 ft 470 kts 338°
2026-05-07 01:21 -33.32273 -73.10076 34193 ft 470 kts 338°
2026-05-07 01:22 -33.25909 -73.11887 34195 ft 470 kts 338°
2026-05-07 01:22 -33.19534 -73.13699 34183 ft 470 kts 338°
2026-05-07 01:23 -33.13158 -73.15512 34185 ft 470 kts 338°
2026-05-07 01:23 -33.06785 -73.17313 34184 ft 470 kts 338°
2026-05-07 01:24 -33.00455 -73.19110 34178 ft 470 kts 338°
2026-05-07 01:24 -32.94077 -73.20907 34180 ft 470 kts 338°
2026-05-07 01:25 -32.87686 -73.22709 34170 ft 471 kts 338°
2026-05-07 01:25 -32.81342 -73.24497 34164 ft 471 kts 338°
2026-05-07 01:26 -32.74952 -73.26295 34167 ft 470 kts 337°
2026-05-07 01:26 -32.68608 -73.28079 34164 ft 471 kts 337°
2026-05-07 01:27 -32.62224 -73.29869 34157 ft 471 kts 337°
2026-05-07 01:27 -32.55840 -73.31658 34156 ft 471 kts 337°
2026-05-07 01:28 -32.50543 -73.33139 34158 ft 471 kts 337°
2026-05-07 01:28 -32.44157 -73.34923 34158 ft 472 kts 337°
2026-05-07 01:29 -32.43078 -73.35224 34159 ft 472 kts 337°
2026-05-07 01:29 -32.34698 -73.37565 34351 ft 477 kts 337°
2026-05-07 01:29 -32.30416 -73.38757 34801 ft 476 kts 337°
2026-05-07 01:29 -32.27180 -73.39652 35127 ft 476 kts 337°
2026-05-07 01:30 -32.23948 -73.40550 35324 ft 478 kts 337°
2026-05-07 01:30 -32.20700 -73.41453 35568 ft 480 kts 337°
2026-05-07 01:30 -32.17448 -73.42357 35851 ft 480 kts 337°
2026-05-07 01:30 -32.14183 -73.43262 36131 ft 480 kts 336°
2026-05-07 01:31 -32.10958 -73.44157 36339 ft 483 kts 336°
2026-05-07 01:31 -32.07682 -73.45066 36545 ft 484 kts 336°
2026-05-07 01:31 -32.04394 -73.45976 36819 ft 484 kts 336°
2026-05-07 01:31 -32.01121 -73.46877 37297 ft 478 kts 336°
2026-05-07 01:32 -31.97891 -73.47764 37671 ft 475 kts 336°
2026-05-07 01:32 -31.94706 -73.48642 37864 ft 477 kts 336°
2026-05-07 01:32 -31.91459 -73.49541 38072 ft 477 kts 336°
2026-05-07 01:32 -31.88242 -73.50427 38460 ft 473 kts 336°
2026-05-07 01:33 -31.85039 -73.51308 38747 ft 472 kts 336°
2026-05-07 01:33 -31.81843 -73.52188 39008 ft 471 kts 336°
2026-05-07 01:33 -31.78639 -73.53073 39169 ft 473 kts 336°
2026-05-07 01:33 -31.75437 -73.53956 39399 ft 472 kts 336°
2026-05-07 01:34 -31.72251 -73.54829 39792 ft 468 kts 336°
2026-05-07 01:34 -31.70150 -73.55405 39916 ft 469 kts 336°
2026-05-07 01:34 -31.66965 -73.56280 40005 ft 471 kts 336°
2026-05-07 01:35 -31.59495 -73.58336 40153 ft 477 kts 336°
2026-05-07 01:35 -31.52982 -73.60123 40169 ft 484 kts 337°
2026-05-07 01:36 -31.47517 -73.61616 40160 ft 485 kts 337°
2026-05-07 01:36 -31.40954 -73.63398 40150 ft 481 kts 337°
2026-05-07 01:37 -31.34444 -73.65166 40155 ft 478 kts 337°
2026-05-07 01:37 -31.27956 -73.66933 40154 ft 478 kts 337°
2026-05-07 01:38 -31.21496 -73.68693 40148 ft 478 kts 336°
2026-05-07 01:38 -31.15012 -73.70453 40149 ft 477 kts 337°
2026-05-07 01:39 -31.08549 -73.72202 40147 ft 475 kts 337°
2026-05-07 01:39 -31.02122 -73.73941 40150 ft 473 kts 336°
2026-05-07 01:40 -30.95714 -73.75674 40148 ft 472 kts 336°
2026-05-07 01:40 -30.89316 -73.77401 40146 ft 470 kts 336°
2026-05-07 01:41 -30.82982 -73.79108 40147 ft 469 kts 336°
2026-05-07 01:41 -30.76615 -73.80823 40150 ft 468 kts 336°
2026-05-07 01:42 -30.70263 -73.82532 40147 ft 468 kts 336°
2026-05-07 01:42 -30.63955 -73.84224 40146 ft 467 kts 336°
2026-05-07 01:43 -30.57634 -73.85918 40147 ft 465 kts 336°
2026-05-07 01:43 -30.51326 -73.87607 40148 ft 464 kts 336°
2026-05-07 01:44 -30.45034 -73.89291 40140 ft 464 kts 336°
2026-05-07 01:44 -30.38770 -73.90963 40140 ft 464 kts 336°
2026-05-07 01:45 -30.32463 -73.92645 40146 ft 465 kts 336°
2026-05-07 01:45 -30.26161 -73.94322 40132 ft 463 kts 336°
2026-05-07 01:46 -30.19886 -73.95991 40140 ft 462 kts 336°
2026-05-07 01:46 -30.13612 -73.97658 40140 ft 462 kts 336°
2026-05-07 01:47 -30.07374 -73.99315 40139 ft 463 kts 336°
2026-05-07 01:47 -30.01090 -74.00979 40137 ft 463 kts 336°
2026-05-07 01:48 -29.94814 -74.02640 40137 ft 463 kts 336°
2026-05-07 01:48 -29.88521 -74.04303 40126 ft 463 kts 336°
2026-05-07 01:49 -29.82244 -74.05956 40007 ft 459 kts 336°
2026-05-07 01:49 -29.79145 -74.06769 39577 ft 454 kts 336°
2026-05-07 01:49 -29.76081 -74.07572 39096 ft 449 kts 336°
2026-05-07 01:49 -29.73078 -74.08359 38611 ft 446 kts 336°
2026-05-07 01:50 -29.70063 -74.09151 38101 ft 443 kts 336°
2026-05-07 01:50 -29.67056 -74.09945 37532 ft 442 kts 336°
2026-05-07 01:50 -29.64068 -74.10735 36987 ft 440 kts 336°
2026-05-07 01:50 -29.61083 -74.11521 36469 ft 439 kts 336°
2026-05-07 01:51 -29.58107 -74.12303 36259 ft 438 kts 336°
2026-05-07 01:51 -29.52131 -74.13883 36156 ft 447 kts 336°
2026-05-07 01:52 -29.46025 -74.15490 36130 ft 457 kts 337°
2026-05-07 01:52 -29.39688 -74.17159 36130 ft 475 kts 338°
2026-05-07 01:53 -29.33139 -74.18870 36116 ft 488 kts 338°
2026-05-07 01:53 -29.26474 -74.20598 36108 ft 490 kts 338°
2026-05-07 01:54 -29.19879 -74.22304 36104 ft 487 kts 338°
2026-05-07 01:54 -29.13260 -74.24024 36110 ft 487 kts 338°
2026-05-07 01:55 -29.06630 -74.25748 36109 ft 488 kts 339°
2026-05-07 01:55 -28.99999 -74.27470 36109 ft 488 kts 339°
2026-05-07 01:56 -28.93422 -74.29174 36100 ft 487 kts 339°
2026-05-07 01:56 -28.86806 -74.30888 36104 ft 486 kts 339°
2026-05-07 01:57 -28.80203 -74.32594 36098 ft 486 kts 339°
2026-05-07 01:57 -28.73600 -74.34299 36103 ft 486 kts 339°
2026-05-07 01:58 -28.67000 -74.36002 36102 ft 486 kts 339°
2026-05-07 01:58 -28.60447 -74.37690 36100 ft 485 kts 339°
2026-05-07 01:59 -28.53861 -74.39384 36101 ft 484 kts 339°
2026-05-07 01:59 -28.48290 -74.40410 36101 ft 493 kts 348°